Showing default

LUCH (OLYMP), 40258

Orbit data source: Space-Track

LUCH (OLYMP), 40258 is a payload satellite owned by FSB (CIS) in GEO that was launched on Sat, 27 Sep 2014 UTC via a PROTON-M/BRIZ-M launch vehicle from the Tyuratam Missile And Space Complex (TTMTR). Payload-class satellites include a variety of spacecraft equipped with specific instruments for various scientific and technological missions. These include communications satellites like Starlink; space stations such as the ISS; scientific satellites like the Hubble; Earth observation satellites from companies like Planet Labs, Umbra, and HawkEye 360; GPS; miniature CubeSats for education and research; and military/defense satellites.

Loading next visibility...
Identifier
40258, 2014-058A
Orbit
GEO
Country
Flag of CISCIS
Related business
Manufacturer
Resehetnev ISS
Mission
Non-operational Defense Communications
Bus & Motor
EKSPRESS-2000, Unknown motor
Mass
1,930 kg wet, ~1,800 kg dry
Launch date (UTC)
2014-09-27 (12 years ago)
Launch vehicle
PROTON-M/BRIZ-M
Launch site
Tyuratam Missile And Space Complex (TTMTR)
Object type
Payload
Rocket body
Debris
Shape & HBR
Cyl + 2 Pan + 2 Dish, 8.0 m
Radar Cross Section
40.926 m², Large (>1 m²)

Expand to show TLE details & history
Last TLE update: 4 days ago

TLE from 4 days ago
0 LUCH (OLYMP)
1 40258U 14058A   26204.82022418 -.00000241  00000-0  00000+0 0  9995
2 40258   1.9883  82.2534 0001212 103.6306  20.7738  0.99116004 41337
Epoch: 2026-07-23T19:41Z
TLE epoch observation values (Epoch: 2026-07-23T19:41:07.369Z)
Latitude
1.64994°
Longitude
-30.14492°
Altitude
36,108.252 km
Speed
3.063 km/s
True Right ascension
13h 46m 45s
True Declination
1° 38' 54"
Sunlit
Object was in daylight at epoch
Visualization orbit readout
Latitude
Unknown
Longitude
Unknown
Altitude
Unknown
Speed
Unknown
Apparent Right ascension
Unknown
Apparent Declination
Unknown
Sunlit
N/A
Visualization observer readout
Local Sidereal Time
01:17:02
Azimuth
Unknown
Elevation
Unknown
Doppler factor
Unknown
Orbital elements
Apogee altitude
36,119.958 km
Perigee altitude
36,109.657 km
Semi-major axis
42,492.944 km
Eccentricity
0.00012
Inclination
1.9883°
RAAN
82.2534°
Arg. of periapsis
103.6306°
True anomaly
20.77873°
Mean anomaly
20.7738°
Eccentric anomaly
20.77626°
Mean motion
0.24778 °/min
Orbital period
1,452.9 mins
BSTAR
0
Loading maneuver chart data...
Computing Atmospheric mass density...
Loading historical data...
Loading historical data...
Loading historical data...
Loading historical data...
Loading historical data...
Loading historical data...
Loading historical data...
Other satellites on launch #58 in the year 2014 (2014-09-27 UTC)

Documentation

Showing up to 5 results
|